| time (UTC) | temp F | wind direction | speed knots | gust knots | rain 1hr in | rain 24hr in | rain mn in | humidity % | barometer mb |
| 20260504080951 | 56 | 340 | 1.7 | 1.7 | 0.00 | 0.09 | 0.09 | 91 | 1008.2 |
| 20260504050019 | 63 | 210 | 4.3 | 6.1 | 0.00 | 0.00 | 0.00 | 61 | 1007.7 |
| 20260504044019 | 62 | 206 | 2.6 | 6.1 | 0.00 | 0.00 | 0.00 | 61 | 1008.2 |
| 20260504042018 | 62 | 204 | 1.7 | 4.3 | 0.00 | 0.00 | 0.00 | 59 | 1008.4 |
| 20260504041018 | 62 | 204 | 3.5 | 7.0 | 0.00 | 0.00 | 0.00 | 58 | 1008.4 |
| 20260504040018 | 63 | 194 | 1.7 | 4.3 | 0.00 | 0.00 | 0.00 | 55 | 1008.6 |
| 20260504034018 | 63 | 191 | 4.3 | 7.8 | 0.00 | 0.00 | 0.00 | 55 | 1008.5 |
| 20260504032018 | 63 | 209 | 3.5 | 7.0 | 0.00 | 0.00 | 0.00 | 55 | 1008.5 |
| 20260504031018 | 64 | 199 | 2.6 | 7.8 | 0.00 | 0.00 | 0.00 | 54 | 1008.6 |
| 20260504030018 | 64 | 198 | 2.6 | 6.1 | 0.00 | 0.00 | 0.00 | 54 | 1008.6 |
| 20260504025017 | 64 | 199 | 2.6 | 6.1 | 0.00 | 0.00 | 0.00 | 53 | 1008.6 |
| 20260504024017 | 64 | 198 | 3.5 | 7.0 | 0.00 | 0.00 | 0.00 | 53 | 1008.7 |
| 20260504022017 | 64 | 199 | 2.6 | 7.0 | 0.00 | 0.00 | 0.00 | 52 | 1008.7 |
| 20260504021017 | 64 | 197 | 1.7 | 5.2 | 0.00 | 0.00 | 0.00 | 51 | 1008.7 |
| 20260504020017 | 65 | 196 | 2.6 | 7.0 | 0.00 | 0.00 | 0.00 | 51 | 1008.6 |
| 20260504015016 | 65 | 186 | 4.3 | 6.1 | 0.00 | 0.00 | 0.00 | 51 | 1008.6 |
| 20260504014016 | 65 | 186 | 2.6 | 7.0 | 0.00 | 0.00 | 0.00 | 50 | 1008.5 |
| 20260504013016 | 65 | 186 | 7.0 | 7.8 | 0.00 | 0.00 | 0.00 | 50 | 1008.5 |
| 20260504012016 | 65 | 180 | 0.9 | 5.2 | 0.00 | 0.00 | 0.00 | 51 | 1008.5 |
| 20260504011016 | 65 | 178 | 0.0 | 6.1 | 0.00 | 0.00 | 0.00 | 50 | 1008.5 |
| 20260504005016 | 66 | 176 | 5.2 | 7.0 | 0.00 | 0.00 | 0.00 | 48 | 1008.7 |
| 20260504003015 | 67 | 182 | 4.3 | 5.2 | 0.00 | 0.00 | 0.00 | 47 | 1008.6 |
| 20260504002015 | 67 | 182 | 1.7 | 5.2 | 0.00 | 0.00 | 0.00 | 46 | 1008.7 |
| 20260503235015 | 68 | 191 | 4.3 | 8.7 | 0.00 | 0.00 | 0.00 | 44 | 1009.0 |
| 20260503234015 | 69 | 209 | 1.7 | 10.4 | 0.00 | 0.00 | 0.00 | 44 | 1009.2 |
| 20260503233015 | 69 | 215 | 5.2 | 6.1 | 0.00 | 0.00 | 0.00 | 44 | 1009.3 |
| 20260503232014 | 69 | 234 | 4.3 | 10.4 | 0.00 | 0.00 | 0.00 | 45 | 1009.6 |
| 20260503231014 | 69 | 187 | 4.3 | 16.5 | 0.00 | 0.00 | 0.00 | 44 | 1009.4 |
| 20260503230014 | 69 | 244 | 3.5 | 8.7 | 0.00 | 0.00 | 0.00 | 44 | 1009.5 |
| 20260503225014 | 69 | 207 | 5.2 | 10.4 | 0.00 | 0.00 | 0.00 | 43 | 1009.6 |
| 20260503224014 | 69 | 223 | 3.5 | 10.4 | 0.00 | 0.00 | 0.00 | 43 | 1009.5 |
| 20260503223014 | 69 | 210 | 4.3 | 9.6 | 0.00 | 0.00 | 0.00 | 43 | 1009.5 |
| 20260503222014 | 69 | 214 | 3.5 | 9.6 | 0.00 | 0.00 | 0.00 | 43 | 1009.4 |
| 20260503221013 | 69 | 204 | 5.2 | 9.6 | 0.00 | 0.00 | 0.00 | 43 | 1009.4 |
| 20260503215013 | 69 | 202 | 7.8 | 12.2 | 0.00 | 0.00 | 0.00 | 43 | 1009.9 |
| 20260503214013 | 69 | 195 | 2.6 | 10.4 | 0.00 | 0.00 | 0.00 | 44 | 1010.0 |
| 20260503213013 | 69 | 213 | 4.3 | 12.2 | 0.00 | 0.00 | 0.00 | 43 | 1010.2 |
| 20260503212013 | 69 | 150 | 12.2 | 12.2 | 0.00 | 0.00 | 0.00 | 43 | 1010.4 |
| 20260503211013 | 69 | 232 | 6.1 | 13.0 | 0.00 | 0.00 | 0.00 | 43 | 1010.5 |
| 20260503210012 | 69 | 208 | 7.8 | 12.2 | 0.00 | 0.00 | 0.00 | 43 | 1010.5 |
| 20260503204012 | 68 | 172 | 12.2 | 13.9 | 0.00 | 0.00 | 0.00 | 44 | 1011.3 |
| 20260503203012 | 68 | 202 | 4.3 | 13.0 | 0.00 | 0.00 | 0.00 | 43 | 1011.6 |
| 20260503202012 | 68 | 229 | 5.2 | 11.3 | 0.00 | 0.00 | 0.00 | 43 | 1011.9 |
| 20260503201012 | 68 | 186 | 10.4 | 14.8 | 0.00 | 0.00 | 0.00 | 43 | 1011.9 |
| 20260503200012 | 68 | 224 | 5.2 | 11.3 | 0.00 | 0.00 | 0.00 | 44 | 1012.2 |
| 20260503195012 | 67 | 198 | 2.6 | 13.9 | 0.00 | 0.00 | 0.00 | 46 | 1012.4 |
| 20260503194012 | 68 | 192 | 4.3 | 9.6 | 0.00 | 0.00 | 0.00 | 46 | 1012.6 |
| 20260503193011 | 67 | 196 | 6.1 | 10.4 | 0.00 | 0.00 | 0.00 | 47 | 1013.3 |
| 20260503192011 | 67 | 186 | 7.8 | 12.2 | 0.00 | 0.00 | 0.00 | 46 | 1013.5 |
| 20260503190011 | 66 | 225 | 5.2 | 11.3 | 0.00 | 0.00 | 0.00 | 48 | 1014.1 |
| 20260503184011 | 65 | 226 | 3.5 | 14.8 | 0.00 | 0.00 | 0.00 | 44 | 1014.3 |
| 20260503183011 | 65 | 227 | 6.1 | 10.4 | 0.00 | 0.00 | 0.00 | 50 | 1014.4 |
| 20260503182011 | 65 | 200 | 7.0 | 14.8 | 0.00 | 0.00 | 0.00 | 48 | 1014.9 |
| 20260503181011 | 64 | 226 | 4.3 | 13.0 | 0.00 | 0.00 | 0.00 | 51 | 1015.1 |
| 20260503180011 | 64 | 202 | 5.2 | 11.3 | 0.00 | 0.01 | 0.00 | 49 | 1015.6 |
| 20260503175010 | 63 | 244 | 4.3 | 11.3 | 0.00 | 0.01 | 0.00 | 51 | 1015.8 |
| 20260503174010 | 63 | 219 | 5.2 | 12.2 | 0.00 | 0.01 | 0.00 | 48 | 1016.0 |
| 20260503172010 | 63 | 186 | 5.2 | 13.0 | 0.00 | 0.01 | 0.00 | 53 | 1016.5 |
| 20260503171010 | 62 | 191 | 1.7 | 11.3 | 0.00 | 0.01 | 0.00 | 55 | 1016.7 |
| 20260503151008 | 58 | 229 | 3.5 | 7.8 | 0.00 | 0.02 | 0.00 | 61 | 1017.6 |